Simultaneous Nadir Overpasses (SNOs) Predictions

Prediction of SNOs between AURA and NPP Satellite Orbit:

Table of predicted SNOs for the next 14.0 days since TLE Epoch: 3/26/2022
Index Date (AURA) Time (AURA) Lat,Lon (AURA) SZA (AURA ) Date (NPP) Time (NPP) Lat,Lon (NPP) SZA (NPP ) Distance(km) Time Diff (sec)
1 03/27/2022 19:09:10 79.27, 148.01 90.19 03/27/2022 19:08:03 79.27, 147.95 90.26 1.25 67
2 03/27/2022 19:58:29 -79.58, -42.25 90.28 03/27/2022 19:58:39 -79.58, -42.23 90.29 0.50 10
3 03/30/2022 11:25:33 79.42, -95.12 88.92 03/30/2022 11:24:53 79.43, -95.02 88.93 2.12 40
4 03/30/2022 12:14:55 -79.62, 73.89 91.39 03/30/2022 12:15:33 -79.61, 73.77 91.40 2.68 38
5 04/02/2022 03:41:56 79.51, 21.41 87.73 04/02/2022 03:41:44 79.52, 21.47 87.72 1.31 12
6 04/02/2022 04:31:17 -79.74,-169.28 92.64 04/02/2022 04:32:22 -79.75,-169.14 92.71 2.90 65
7 04/04/2022 19:09:02 -79.30, -31.80 92.99 04/04/2022 19:08:01 -79.29, -31.88 92.93 1.73 61
8 04/04/2022 19:58:19 79.63, 138.09 86.52 04/04/2022 19:58:35 79.63, 138.22 86.48 2.73 16
9 04/07/2022 11:25:24 -79.43, 85.01 94.22 04/07/2022 11:24:51 -79.44, 85.09 94.21 1.76 33



Historial Predications of SNOs between AURA and NPP
